Regional Weather Roundup
Issued by NWS State College, PA

Home | Current Version | Previous Version | Graphics & Text | Print | Product List | Glossary On
Versions: 1 2 3 4 5 6 7 8 9 10 11 12 13 14 15 16 17 18 19 20 21 22 23 24 25 26 27 28 29 30 31 32 33 34 35 36 37 38 39 40 41 42 43 44 45 46 47 48 49 50
181
ASUS41 KCTP 291103
RWRCTP

REGIONAL WEATHER ROUNDUP
NATIONAL WEATHER SERVICE STATE COLLEGE PA
700 AM EDT WED MAR 29 2017

Note: "fair" indicates few or no clouds below 12,000 feet with no
significant weather and/or obstructions to visibility.

* = STATION THAT DOES NOT REPORT PRECIPITATION /E.G. RAIN...SNOW...ETC/
    THUNDER OR FOG.

PAZ002>004-007>009-013>016-020>023-029>032-291200-
WESTERN PENNSYLVANIA

CITY           SKY/WX    TMP DP  RH WIND       PRES   REMARKS
ERIE           CLEAR     38  33  82 CALM      30.21R
MEADVILLE      CLOUDY    38  32  79 NE6       30.18R
FRANKLIN*      CLOUDY    39  32  75 NE8       30.18R
NEW CASTLE     CLOUDY    42  37  82 N6        30.19R
BEAVER COUNTY  CLOUDY    43  39  87 N5        30.17
BUTLER*        CLOUDY    43  37  81 N5        30.18R
PITTSBURGH INT CLOUDY    45  41  86 N6        30.16R
PITTSBURGH     CLOUDY    44  36  73 N5        30.15R
INDIANA*       CLOUDY    43  37  81 VRB3      30.17R
LATROBE        CLOUDY    45  39  81 N9        30.16R
WASHINGTON CO* CLOUDY    45  37  76 N8        30.18R
$$

PAZ004>006-010>012-017>019-024>028-033>037-041-042-045-046-049>053-291200-
CENTRAL PENNSYLVANIA

CITY           SKY/WX    TMP DP  RH WIND       PRES   REMARKS
BRADFORD       CLOUDY    37  31  78 N8        30.14R
DUBOIS         NOT AVBL
CLEARFIELD       N/A    N/A N/A N/A MISG      30.14R
JOHNSTOWN      CLOUDY    40  37  89 N9        30.10R
ALTOONA        CLOUDY    46  39  76 N10       30.11R
STATE COLLEGE  CLOUDY    43  36  75 NE6       30.13R
WILLIAMSPORT   CLOUDY    44  31  60 VRB6      30.14R
SELINSGROVE    CLOUDY    44  35  70 NE14      30.13R
FT INDIANTOWN  PTCLDY    44  36  74 N10G23    30.08R
CAPITAL CITY   PTCLDY    48  34  58 N7        30.10R
HARRISBURG     MOCLDY    44  36  73 CALM      30.10R
YORK           PTCLDY    45  37  73 VRB6      30.09R
$$

PAZ038>040-043-044-047-048-054-055-060>062-067>071-291200-
EASTERN PENNSYLVANIA

CITY           SKY/WX    TMP DP  RH WIND       PRES   REMARKS
SCRANTON       CLOUDY    39  32  76 N14       30.10R
MOUNT POCONO   CLOUDY    34  32  92 N15G30    30.02R
ALLENTOWN      CLEAR     41  33  73 N8        30.07R
QUAKERTOWN*    MOSUNNY   41  36  81 N3        30.06R
READING        MOCLDY    44  37  76 NW10      30.08R
LANCASTER      CLOUDY    45  38  76 N7        30.08R
COATESVILLE    SUNNY     43  39  87 N7G15     30.06R
POTTSTOWN      PTCLDY    43  36  76 N7        30.07R
BLUE BELL      CLOUDY    43  37  81 NW7       30.04R
DOYLESTOWN     CLOUDY    43  38  82 N7        30.04R
WILLOW GROVE   NOT AVBL
NORTH PHILA    CLOUDY    47  40  76 N14       30.05R
PHILADELPHIA   MOCLDY    47  39  74 N13       30.04R
$$




USA.gov is the U.S. government's official web portal to all federal, state and local government web resources and services.